Tracking 19125 objects as of 19-Apr-2018
HD Live streaming from Space Station
objects crossing your sky now

ARIANE 5 R/B

Track ARIANE 5 R/B now!


NORAD ID: 25990
Int'l Code: 1999-066B
Perigee: 8,457.9 km
Apogee: 104,172.2 km
Inclination: 62.3 °
Period: 2,603.3 minutes
Semi major axis: 62686 km
RCS: 6.3096 m2 (large)
Launch date: December 10, 1999
Source: France (FR)
Launch site: FRENCH GUIANA (FRGUI)

Note: This is a ROCKET BODY
aabbcc
Your satellite tracking list
Your tracking list is empty




NASA's NSSDC Master Catalog

Two Line Element Set (TLE):
1 25990U 99066B   18110.25648163  .00000134  00000-0  00000+0 0  9998
2 25990  62.2736  71.5226 7634415  79.0466   0.0606  0.55315458 24877
Source of the keplerian elements: AFSPC